Satellite-Ground Cal/Val Region Overpasses Predictions

Prediction of Satellite NPP Overpassing Cal/Val Region: PacNW

Region Location: (Latitude: 10.00, Longitude: 139.50) to (Latitude: 22.70, Longitude: 165.60).

Table of predicted overpasses for the next 14.0 days since TLE Epoch: 2/5/2017
Interval Starting Time Starting Location Ending Time Ending Location
1 02/06/2017 02:45:53 ( 10.01, 158.24) 02/06/2017 02:49:29 ( 22.68, 155.22)
2 02/06/2017 15:17:45 ( 22.69, 155.47) 02/06/2017 15:21:21 ( 10.01, 152.45)
3 02/07/2017 02:26:50 ( 10.00, 163.00) 02/07/2017 02:30:26 ( 22.68, 159.98)
4 02/07/2017 14:58:43 ( 22.70, 160.23) 02/07/2017 15:02:19 ( 10.01, 157.21)
5 02/08/2017 02:10:25 ( 19.22, 165.59) 02/08/2017 02:11:24 ( 22.68, 164.74)
6 02/08/2017 03:49:18 ( 10.01, 142.38) 02/08/2017 03:52:44 ( 22.10, 139.51)
7 02/08/2017 14:39:41 ( 22.70, 164.99) 02/08/2017 14:43:17 ( 10.02, 161.97)
8 02/08/2017 16:21:11 ( 22.69, 139.61) 02/08/2017 16:21:18 ( 22.28, 139.51)
9 02/09/2017 03:30:15 ( 10.00, 147.14) 02/09/2017 03:33:51 ( 22.68, 144.12)
10 02/09/2017 16:02:08 ( 22.69, 144.37) 02/09/2017 16:05:44 ( 10.01, 141.36)
11 02/10/2017 03:11:13 ( 10.00, 151.90) 02/10/2017 03:14:49 ( 22.68, 148.88)
12 02/10/2017 15:43:06 ( 22.69, 149.13) 02/10/2017 15:46:42 ( 10.01, 146.12)
13 02/11/2017 02:52:11 ( 10.06, 156.65) 02/11/2017 02:55:46 ( 22.68, 153.65)
14 02/11/2017 15:24:03 ( 22.70, 153.89) 02/11/2017 15:27:39 ( 10.01, 150.88)
15 02/12/2017 02:33:09 ( 10.06, 161.41) 02/12/2017 02:36:44 ( 22.68, 158.40)
16 02/12/2017 15:05:01 ( 22.70, 158.65) 02/12/2017 15:08:37 ( 10.02, 155.64)
17 02/13/2017 02:14:48 ( 12.52, 165.60) 02/13/2017 02:17:41 ( 22.68, 163.16)
18 02/13/2017 03:55:35 ( 10.00, 140.80) 02/13/2017 03:57:10 ( 15.58, 139.51)
19 02/13/2017 14:45:58 ( 22.70, 163.41) 02/13/2017 14:49:34 ( 10.02, 160.40)
20 02/14/2017 03:36:33 ( 10.00, 145.56) 02/14/2017 03:40:09 ( 22.68, 142.55)
21 02/14/2017 14:30:00 ( 11.90, 165.59) 02/14/2017 14:30:32 ( 10.02, 165.16)
22 02/14/2017 16:08:26 ( 22.69, 142.80) 02/14/2017 16:12:02 ( 10.01, 139.78)
23 02/15/2017 03:17:30 ( 10.00, 150.32) 02/15/2017 03:21:06 ( 22.68, 147.31)
24 02/15/2017 15:49:23 ( 22.69, 147.56) 02/15/2017 15:52:59 ( 10.01, 144.54)
25 02/16/2017 02:58:29 ( 10.06, 155.07) 02/16/2017 03:02:04 ( 22.68, 152.07)
26 02/16/2017 15:30:21 ( 22.69, 152.31) 02/16/2017 15:33:57 ( 10.01, 149.30)
27 02/17/2017 02:39:27 ( 10.06, 159.83) 02/17/2017 02:43:02 ( 22.68, 156.83)
28 02/17/2017 15:11:18 ( 22.69, 157.07) 02/17/2017 15:14:54 ( 10.01, 154.06)
29 02/18/2017 02:20:24 ( 10.06, 164.59) 02/18/2017 02:23:59 ( 22.68, 161.59)
30 02/18/2017 14:52:16 ( 22.69, 161.83) 02/18/2017 14:55:52 ( 10.01, 158.82)
31 02/19/2017 03:42:51 ( 10.01, 143.99) 02/19/2017 03:46:27 ( 22.69, 140.97)
32 02/19/2017 14:34:22 ( 18.65, 165.60) 02/19/2017 14:36:49 ( 10.01, 163.58)


NCC Satellite Cal/Val Overpasses Prediction Service
